Weather History for Tekamah, NE

Change the Weather History Date:

Friday, October 8, 2010

  Actual Average Record
Temperature  
Mean Temperature 70 °F -  
Max Temperature 93 °F 69 °F 93 °F (2010)
Min Temperature 46 °F 41 °F 17 °F (2000)
Cooling Degree Days 4    
Growing Degree Days 20 (Base 50)    
Moisture  
Dew Point 47 °F    
Average Humidity 55    
Maximum Humidity 86    
Minimum Humidity 23    
Precipitation  
Precipitation 0.00 in - - ()
Sea Level Pressure  
Sea Level Pressure 29.95 in    
Wind  
Wind Speed 7 mph (SSE)    
Max Wind Speed 21 mph    
Max Gust Speed 26 mph    
Visibility 9 miles    
Events      
Averages and records for this station are not official NWS values.
T = Trace of Precipitation, MM = Missing Value Source: NWS Daily Summary

Daily Weather History Graph

Daily Weather History Graph

Search for Another Location

Airport:

Trip Planner

Search our weather history database for the weather conditions in past years. The results will help you decide how hot, cold, wet, or windy it might be!

Date:

Astronomy

Oct. 08, 2010 Rise Set
Actual Time 7:29 AM CDT 6:54 PM CDT
Civil Twilight 7:01 AM CDT 7:22 PM CDT
Nautical Twilight 6:29 AM CDT 7:54 PM CDT
Astronomical Twilight 5:56 AM CDT 8:26 PM CDT
Moon 8:39 AM CDT (10/8) 7:06 PM CDT (10/8)
Length of Visible Light 12h 21m
Length of Day
11h 25m
New Moon, 1% of the Moon is Illuminated
Oct 8
New Moon
Oct 14
First Quarter
Oct 22
Full
Oct 30
Last Quarter
Nov 5
New

Hourly Weather History & Observations

Time (CDT) Temp. Dew Point Humidity Pressure Visibility Wind Dir Wind Speed Gust Speed Precip Events Conditions
12:54 AM 48.9 °F 39.9 °F 71% 30.06 in 10.0 mi SSE 4.6 mph - N/A   Clear
1:54 AM 48.0 °F 41.0 °F 77% 30.05 in 10.0 mi Calm Calm - N/A   Clear
2:54 AM 48.9 °F 42.1 °F 77% 30.04 in 10.0 mi SE 4.6 mph - N/A   Clear
3:54 AM 46.9 °F 42.1 °F 83% 30.03 in 10.0 mi SSE 5.8 mph - N/A   Clear
4:54 AM 50.0 °F 42.1 °F 74% 30.02 in 10.0 mi Calm Calm - N/A   Clear
5:54 AM 50.0 °F 44.1 °F 80% 30.01 in 10.0 mi SE 5.8 mph - N/A   Clear
6:54 AM 48.0 °F 43.0 °F 83% 30.01 in 10.0 mi South 4.6 mph - N/A   Clear
7:54 AM 48.0 °F 44.1 °F 86% 30.01 in 8.0 mi South 4.6 mph - N/A   Clear
8:54 AM 57.0 °F 46.9 °F 69% 30.01 in 10.0 mi SSE 5.8 mph - N/A   Clear
9:54 AM 64.9 °F 48.0 °F 54% 29.99 in 10.0 mi SSE 11.5 mph - N/A   Clear
10:54 AM 73.9 °F 50.0 °F 43% 29.97 in 10.0 mi SSE 9.2 mph - N/A   Clear
11:54 AM 81.0 °F 51.1 °F 35% 29.95 in 10.0 mi South 13.8 mph - N/A   Clear
12:54 PM 86.0 °F 51.1 °F 30% 29.93 in 10.0 mi South 18.4 mph - N/A   Clear
1:54 PM 90.0 °F 52.0 °F 27% 29.90 in 10.0 mi South 20.7 mph 25.3 mph N/A   Clear
2:54 PM 91.9 °F 50.0 °F 24% 29.87 in 10.0 mi South 19.6 mph 24.2 mph N/A   Clear
3:54 PM 93.0 °F 50.0 °F 23% 29.86 in 10.0 mi South 18.4 mph 26.5 mph N/A   Clear
4:54 PM 91.9 °F 50.0 °F 24% 29.85 in 10.0 mi South 17.3 mph - N/A   Clear
5:54 PM 90.0 °F 50.0 °F 25% 29.85 in 10.0 mi South 13.8 mph - N/A   Clear
6:54 PM 79.0 °F 51.1 °F 38% 29.86 in 3.0 mi SSE 9.2 mph - N/A   Haze
7:54 PM 70.0 °F 50.0 °F 49% 29.88 in 8.0 mi South 5.8 mph - N/A   Clear
8:54 PM 64.9 °F 50.0 °F 58% 29.89 in 7.0 mi South 3.5 mph - N/A   Clear
9:54 PM 62.1 °F 50.0 °F 65% 29.90 in 10.0 mi South 3.5 mph - N/A   Clear
10:54 PM 60.1 °F 48.9 °F 67% 29.90 in 10.0 mi South 5.8 mph - N/A   Clear
11:54 PM 60.1 °F 48.0 °F 64% 29.90 in 10.0 mi SSE 4.6 mph - N/A   Clear